Voltar ao catálogo

FENGYUN 1C DEB

AtivoSSO
NORAD 30304·DEBRIS·🇨🇳 China

Lançado May 10, 1999 de Taiyuan Satellite Launch Center

Loading…

Próximas Passagens (próximas 24 horas)

TLE

AtualizadoSource: Space-Track

Época: Sep 14, 2026, 04:05 UTC

1 30304U 99025ZR  26257.17039094  .00001205  00000-0  61063-3 0  9997
2 30304  99.0179 338.2277 0071393 347.0322  12.9014 14.16697770  7117

Acompanhe FENGYUN 1C DEB em tempo real com AllMySat

Download on the App Store